When you browse on this site, cookies collect data to enhance your experience and personalize the content and advertising you see.
Visit our Privacy Policy to learn more. By continuing to use the site, you agree to this use of cookies and data.
  • In Hungary
  • List of Countries
  • For 7 days
  • Water Temperature
  • Weather Map
  • News
  • Weather Widgets
  • user-avatar
    Login

    Hourly Weather Prilipki

    Today, 23 September, Monday

    Time Temperature Precipitation Wind Pressure Humidity
    00:00 +1°C° 0 mm 6 mps 741 mmHg 84%
    01:00 +1°C° 0 mm 6 mps 742 mmHg 84%
    02:00 +1°C° 0 mm 6 mps 743 mmHg 85%
    03:00 0°C° 0 mm 5 mps 743 mmHg 88%
    04:00 +1°C° 0 mm 5 mps 744 mmHg 84%
    05:00 +1°C° 0 mm 5 mps 744 mmHg 81%
    06:00 +2°C° 0 mm 6 mps 745 mmHg 77%
    07:00 +2°C° 0 mm 6 mps 745 mmHg 75%
    08:00 +2°C° 0 mm 6 mps 746 mmHg 72%
    09:00 +3°C° 0 mm 6 mps 747 mmHg 68%
    10:00 +4°C° 0 mm 6 mps 747 mmHg 66%
    11:00 +5°C° 0 mm 6 mps 747 mmHg 64%
    12:00 +5°C° 0 mm 6 mps 747 mmHg 62%
    13:00 +7°C° 0 mm 6 mps 747 mmHg 61%
    14:00 +7°C° 0 mm 6 mps 747 mmHg 60%
    15:00 +7°C° 0 mm 6 mps 748 mmHg 59%
    16:00 +7°C° 0 mm 5 mps 748 mmHg 61%
    17:00 +6°C° 0 mm 4 mps 748 mmHg 64%
    18:00 +6°C° 0 mm 4 mps 748 mmHg 66%
    19:00 +5°C° 0 mm 4 mps 749 mmHg 67%
    20:00 +5°C° 0 mm 4 mps 749 mmHg 68%
    21:00 +4°C° 0 mm 4 mps 749 mmHg 70%
    22:00 +3°C° 0 mm 3 mps 749 mmHg 72%
    23:00 +2°C° 0 mm 3 mps 749 mmHg 75%

    Tomorrow, 24 September, Tuesday

    Time Temperature Precipitation Wind Pressure Humidity
    00:00 +2°C° 0 mm 3 mps 749 mmHg 77%
    01:00 +1°C° 0 mm 3 mps 750 mmHg 78%
    02:00 +1°C° 0 mm 3 mps 750 mmHg 78%
    03:00 +1°C° 0 mm 3 mps 750 mmHg 79%
    04:00 0°C° 0 mm 3 mps 750 mmHg 80%
    05:00 0°C° 0 mm 3 mps 750 mmHg 80%
    06:00 0°C° 0 mm 3 mps 750 mmHg 81%
    07:00 +1°C° 0 mm 3 mps 750 mmHg 76%
    08:00 +1°C° 0 mm 4 mps 750 mmHg 70%
    09:00 +4°C° 0 mm 4 mps 751 mmHg 65%
    10:00 +4°C° 0 mm 4 mps 750 mmHg 62%
    11:00 +5°C° 0 mm 4 mps 750 mmHg 60%
    12:00 +6°C° 0 mm 4 mps 750 mmHg 57%
    13:00 +6°C° 0.1 mm 4 mps 750 mmHg 58%
    14:00 +6°C° 0.1 mm 4 mps 750 mmHg 59%
    15:00 +6°C° 0.1 mm 4 mps 750 mmHg 60%
    16:00 +6°C° 0 mm 4 mps 750 mmHg 62%
    17:00 +5°C° 0 mm 3 mps 750 mmHg 65%
    18:00 +4°C° 0 mm 3 mps 750 mmHg 67%
    19:00 +4°C° 0 mm 3 mps 750 mmHg 70%
    20:00 +4°C° 0 mm 2 mps 750 mmHg 74%
    21:00 +3°C° 0 mm 2 mps 750 mmHg 77%
    22:00 +3°C° 0 mm 2 mps 750 mmHg 80%
    23:00 +2°C° 0 mm 2 mps 750 mmHg 83%

    Day after tomorrow, 25 September, Wednesday

    Time Temperature Precipitation Wind Pressure Humidity
    00:00 +2°C° 0 mm 2 mps 750 mmHg 85%
    01:00 +2°C° 0 mm 2 mps 750 mmHg 87%
    02:00 +1°C° 0 mm 2 mps 750 mmHg 89%
    03:00 +1°C° 0 mm 2 mps 751 mmHg 90%
    04:00 +1°C° 0 mm 2 mps 751 mmHg 91%
    05:00 +1°C° 0 mm 2 mps 751 mmHg 92%
    06:00 -1°C° 0 mm 2 mps 751 mmHg 93%
    07:00 +2°C° 0 mm 2 mps 751 mmHg 87%
    08:00 +3°C° 0 mm 2 mps 751 mmHg 80%
    09:00 +5°C° 0 mm 2 mps 751 mmHg 73%
    10:00 +6°C° 0 mm 2 mps 751 mmHg 68%
    11:00 +7°C° 0 mm 2 mps 751 mmHg 63%
    12:00 +8°C° 0 mm 3 mps 751 mmHg 58%
    13:00 +9°C° 0.1 mm 3 mps 751 mmHg 57%
    14:00 +9°C° 0.1 mm 3 mps 751 mmHg 56%
    15:00 +9°C° 0.1 mm 3 mps 751 mmHg 56%
    16:00 +8°C° 0.1 mm 2 mps 751 mmHg 60%
    17:00 +7°C° 0.1 mm 2 mps 750 mmHg 65%
    18:00 +8°C° 0.1 mm 1 mps 750 mmHg 69%
    19:00 +7°C° 0 mm 1 mps 750 mmHg 71%
    20:00 +7°C° 0 mm 1 mps 750 mmHg 72%
    21:00 +7°C° 0 mm 1 mps 751 mmHg 74%
    22:00 +6°C° 0 mm 1 mps 751 mmHg 75%
    23:00 +6°C° 0 mm 1 mps 751 mmHg 75%

    26 September, Thursday

    Time Temperature Precipitation Wind Pressure Humidity
    00:00 +6°C° 0 mm 1 mps 750 mmHg 76%
    01:00 +6°C° 0 mm 1 mps 751 mmHg 77%
    02:00 +6°C° 0 mm 1 mps 751 mmHg 77%
    03:00 +5°C° 0 mm 2 mps 751 mmHg 78%
    04:00 +4°C° 0 mm 2 mps 751 mmHg 80%
    05:00 +5°C° 0 mm 1 mps 751 mmHg 82%
    06:00 +5°C° 0 mm 1 mps 751 mmHg 84%
    07:00 +6°C° 0 mm 1 mps 751 mmHg 80%
    08:00 +7°C° 0 mm 1 mps 751 mmHg 76%
    09:00 +8°C° 0 mm 1 mps 751 mmHg 72%
    10:00 +9°C° 0 mm 1 mps 751 mmHg 67%
    11:00 +10°C° 0 mm 1 mps 751 mmHg 62%
    12:00 +11°C° 0 mm 1 mps 751 mmHg 56%
    13:00 +11°C° 0 mm 1 mps 751 mmHg 55%
    14:00 +10°C° 0 mm 2 mps 751 mmHg 53%
    15:00 +12°C° 0 mm 2 mps 750 mmHg 52%
    16:00 +11°C° 0 mm 1 mps 750 mmHg 54%
    17:00 +11°C° 0 mm 1 mps 750 mmHg 56%
    18:00 +10°C° 0 mm 1 mps 750 mmHg 59%
    19:00 +10°C° 0 mm 1 mps 750 mmHg 60%
    20:00 +9°C° 0 mm 1 mps 750 mmHg 60%
    21:00 +9°C° 0 mm 1 mps 750 mmHg 61%
    22:00 +8°C° 0 mm 1 mps 750 mmHg 64%
    23:00 +7°C° 0 mm 1 mps 750 mmHg 67%

    27 September, Friday

    Time Temperature Precipitation Wind Pressure Humidity
    00:00 +7°C° 0 mm 1 mps 750 mmHg 70%
    01:00 +7°C° 0 mm 1 mps 750 mmHg 69%
    02:00 +6°C° 0 mm 0 mps 750 mmHg 69%
    03:00 +6°C° 0 mm 0 mps 750 mmHg 69%
    04:00 +5°C° 0 mm 0 mps 750 mmHg 71%
    05:00 +6°C° 0 mm 1 mps 750 mmHg 74%
    06:00 +5°C° 0 mm 1 mps 750 mmHg 76%
    07:00 +6°C° 0 mm 1 mps 750 mmHg 72%
    08:00 +6°C° 0 mm 2 mps 750 mmHg 68%
    09:00 +7°C° 0 mm 2 mps 750 mmHg 64%
    10:00 +8°C° 0 mm 3 mps 750 mmHg 60%
    11:00 +10°C° 0 mm 3 mps 750 mmHg 56%
    12:00 +11°C° 0 mm 4 mps 750 mmHg 52%
    13:00 +11°C° 0 mm 4 mps 750 mmHg 53%
    14:00 +11°C° 0 mm 4 mps 750 mmHg 54%
    15:00 +12°C° 0 mm 4 mps 749 mmHg 55%
    16:00 +11°C° 0 mm 3 mps 749 mmHg 61%
    17:00 +10°C° 0 mm 3 mps 749 mmHg 66%
    18:00 +9°C° 0 mm 2 mps 749 mmHg 72%
    19:00 +9°C° 0 mm 2 mps 750 mmHg 74%
    20:00 +8°C° 0 mm 2 mps 750 mmHg 77%
    21:00 +8°C° 0 mm 2 mps 750 mmHg 79%
    22:00 +7°C° 0 mm 2 mps 750 mmHg 82%
    23:00 +7°C° 0 mm 2 mps 751 mmHg 85%

    28 September, Saturday

    Time Temperature Precipitation Wind Pressure Humidity
    00:00 +7°C° 0 mm 2 mps 751 mmHg 87%
    01:00 +7°C° 0 mm 2 mps 751 mmHg 88%
    02:00 +6°C° 0 mm 2 mps 751 mmHg 89%
    03:00 +6°C° 0 mm 2 mps 751 mmHg 90%
    04:00 +6°C° 0 mm 2 mps 751 mmHg 91%
    05:00 +5°C° 0 mm 2 mps 752 mmHg 93%
    06:00 +5°C° 0 mm 2 mps 752 mmHg 95%
    07:00 +6°C° 0 mm 2 mps 752 mmHg 90%
    08:00 +7°C° 0 mm 2 mps 752 mmHg 86%
    09:00 +8°C° 0 mm 2 mps 752 mmHg 81%
    10:00 +9°C° 0 mm 2 mps 752 mmHg 76%
    11:00 +11°C° 0 mm 1 mps 753 mmHg 70%
    12:00 +12°C° 0 mm 1 mps 753 mmHg 64%
    13:00 +13°C° 0 mm 1 mps 753 mmHg 62%
    14:00 +13°C° 0 mm 2 mps 752 mmHg 61%
    15:00 +14°C° 0 mm 2 mps 752 mmHg 59%
    16:00 +13°C° 0 mm 1 mps 752 mmHg 62%
    17:00 +13°C° 0 mm 1 mps 752 mmHg 65%
    18:00 +11°C° 0 mm 0 mps 752 mmHg 68%
    19:00 +12°C° 0 mm 1 mps 752 mmHg 69%
    20:00 +12°C° 0 mm 1 mps 752 mmHg 70%
    21:00 +10°C° 0 mm 2 mps 752 mmHg 70%
    22:00 +10°C° 0 mm 2 mps 752 mmHg 70%
    23:00 +10°C° 0 mm 2 mps 752 mmHg 69%
    Show more